Tracking 29892 objects as of 21-Nov-2024
HD Live streaming from Space Station
objects crossing your sky now

COSMOS 886 DEB

Track COSMOS 886 DEB now!
10-day predictions


NORAD ID: 9827
Int'l Code: 1976-126AP
Perigee: 445.4 km
Apogee: 694.8 km
Inclination: 65.8 °
Period: 95.9 minutes
Semi major axis: 6941 km
RCS: 0.0538 m2 (small)
Launch date: December 27, 1976
Source: Commonwealth of Independent States (former USSR) (CIS)
Launch site: TYURATAM MISSILE AND SPACE COMPLEX (TTMTR)

Note: This is SATELLITE DEBRIS
Your satellite tracking list
Your tracking list is empty




NASA's NSSDC Master Catalog

Two Line Element Set (TLE):
1  9827U 76126AP  24325.24194466  .00104121  00000-0  56341-2 0  9990
2  9827  65.7713  58.2619 0179675 273.1285  84.9297 15.01279943379718
Source of the keplerian elements: AFSPC